#timestamp,LO_Frequency,Hit,StdDev 
1550034015.5,286046980.8,N
1550034035.3,286046979.1,N
1550034055.2,286046979.7,N
1550034075.9,286046978.2,N
1550034095.7,286046974.2,N
1550034115.6,286046977.2,N
1550034135.4,286046975.5,N
1550034155.2,286046973.2,N
1550034175.1,286046972.2,N
1550034176.0,286046972.2,N
1550034195.8,286046986.3,N
1550034215.7,286046970.2,N
1550034235.5,286046970.4,N
1550034255.3,286046969.6,N
1550034275.2,286046973.6,N
1550034295.9,286046970.9,N
1550034315.7,286046969.8,N
1550034335.6,286046971.6,N
1550034355.4,286046970.5,N
1550034375.3,286046968.2,Y
1550034395.1,286046987.6,P
1550034396.0,286046987.6,P
1550034415.8,286046988.1,P
1550034435.7,286046988.3,Y
1550034455.5,286047000.3,P
1550034475.3,286047001.2,N
1550034495.2,286046998.4,N
1550034515.0,286046999.3,N
1550034515.9,286046999.3,N
1550034535.8,286046999.2,N
1550034555.6,286046996.9,N
1550034575.4,286046996.6,N
1550034595.3,286046996.5,N
1550034615.1,286046997.1,N
1550034635.8,286046999.2,N
1550034655.7,286047002.5,N
1550034675.5,286047002.5,N
1550034695.4,286047001.5,N
1550034715.2,286047001.4,N
1550034735.0,286047002.9,N
1550034735.9,286047002.9,N
1550034755.8,286047006.9,N
1550034775.6,286047007.6,N
1550034795.4,286047007.2,N
1550034815.3,286047005.5,N
1550034835.1,286047005.9,N
1550034855.8,286047003.8,N
1550034875.7,286047002.1,N
1550034895.5,286047002.4,N
1550034915.4,286046999.8,N
1550034935.2,286047002.3,N
1550034955.0,286047000.7,N
1550034955.9,286047000.7,N
1550034975.8,286046998.4,N
1550034995.6,286046997.5,N
1550035015.4,286046997.9,N
1550035035.3,286046997.5,N
1550035055.1,286046999.5,N
1550035075.9,286046995.0,N
1550035095.7,286046998.0,N
1550035115.5,286046996.6,N
1550035135.4,286046997.6,N
1550035155.2,286046996.6,N
1550035175.0,286046996.5,N
1550035175.9,286046996.5,N
1550035195.8,286046999.6,N
1550035215.6,286046997.9,N
1550035235.5,286046996.0,N
1550035255.3,286046995.2,N
1550035275.1,286046995.2,N
1550035295.9,286046995.8,N
1550035315.7,286046995.6,N
1550035335.5,286046993.6,N
1550035355.4,286046994.3,N
1550035375.2,286046994.1,N
1550035395.1,286046992.2,N
1550035396.0,286046992.2,N
1550035415.8,286046991.7,Y
1550035435.6,286046995.1,P
1550035455.5,286046998.7,N
1550035475.3,286046999.7,N
1550035495.1,286047003.6,N
1550035515.9,286047004.0,N
1550035535.7,286047003.8,N
1550035555.6,286046999.9,N
1550035575.4,286046998.4,N
1550035595.2,286047001.0,N
1550035615.1,286047011.9,Y
1550035616.0,286047001.9,P
1550035635.8,286047005.8,P
1550035655.7,286047005.7,N
1550035675.5,286047003.1,N
1550035695.3,286047005.8,N
1550035715.2,286047007.6,Y
1550035735.0,286047000.8,P
1550035735.9,286047000.8,N
1550035755.7,286047002.7,N
1550035775.6,286047002.7,N
1550035795.4,286047002.0,N
1550035815.3,286047001.7,N
1550035835.1,286047003.7,Y
1550035836.0,286047003.7,P
1550035855.8,286047005.8,P
1550035875.7,286047005.1,P
1550035895.5,286047006.1,Y
1550035915.3,286047007.5,P
1550035935.2,286047008.1,P
1550035955.0,286047013.0,P
1550035955.9,286047013.0,Y
1550035975.8,286047007.0,P
1550035995.6,286047006.5,P
1550036015.4,286047008.1,P
1550036035.3,286047010.4,Y
1550036055.1,286047004.1,P
1550036075.9,286047007.2,P
1550036095.7,286047005.4,P
1550036115.5,286047001.8,N
1550036135.4,286047000.3,N
1550036155.2,286047002.8,N
1550036175.1,286047000.4,N
1550036176.0,286047000.4,N
1550036195.8,286047002.7,N
1550036215.6,286047002.5,N
1550036235.5,286047001.5,N
1550036255.3,286047001.8,N
1550036275.1,286047000.6,N
1550036295.9,286046997.2,N
1550036315.7,286046995.3,N
1550036335.6,286046993.5,N
1550036355.4,286046992.2,N
1550036375.2,286046990.9,N
1550036395.1,286046989.4,N
1550036396.0,286046989.4,N
1550036415.8,286046987.1,N
1550036435.6,286046986.7,N
1550036455.5,286046985.2,N
1550036475.3,286046983.9,N
1550036495.2,286046984.5,N
1550036515.9,286046986.6,N
1550036535.7,286046988.4,N
1550036555.6,286046987.6,N
1550036575.4,286046985.9,N
1550036595.2,286046983.7,N
1550036615.1,286046986.8,N
1550036616.0,286046986.8,N
1550036635.8,286046985.9,N
1550036655.7,286046985.4,N
1550036675.5,286046988.1,N
1550036695.3,286046989.6,N
1550036715.2,286046991.4,N
1550036735.0,286046990.5,N
1550036735.9,286046990.5,N
1550036755.8,286046994.8,N
1550036775.6,286046994.1,N
1550036795.4,286046993.8,N
1550036815.3,286046997.7,N
1550036835.1,286046998.4,N
1550036855.8,286047000.1,N
1550036875.7,286047003.1,N
1550036895.5,286047005.9,N
1550036915.4,286047006.7,N
1550036935.2,286047006.7,N
1550036955.0,286047006.8,N
1550036955.9,286047006.8,N
1550036975.8,286047006.3,N
1550036995.6,286047008.8,N
1550037015.5,286047009.2,N
1550037035.3,286047008.2,N
1550037055.1,286047010.5,N
1550037075.9,286047009.6,N
1550037095.7,286047013.8,N
1550037115.6,286047015.4,N
1550037135.4,286047013.2,N
1550037155.2,286047011.2,N
1550037175.1,286047010.6,N
1550037176.0,286047010.6,N
1550037195.8,286047009.0,N
1550037215.6,286047004.6,N
1550037235.5,286047002.1,N
1550037255.3,286047001.0,N
1550037275.2,286046998.1,N
1550037295.9,286047000.1,N
1550037315.7,286046998.1,N
1550037335.6,286047001.2,N
1550037355.4,286046996.8,N
1550037375.2,286046995.3,N
1550037395.1,286046993.4,N
1550037396.0,286046993.4,N
1550037415.8,286046994.5,N
1550037435.7,286046992.3,N
1550037455.5,286046990.7,N
1550037475.3,286046989.5,N
1550037495.2,286046987.0,N
1550037515.0,286046986.0,N
1550037515.9,286046986.0,N
1550037535.8,286046985.5,N
1550037555.6,286046986.0,N
1550037575.4,286046991.6,N
1550037595.3,286046990.1,N
